This is the latest recevied weather packets stored in our database for station/object NEWPRT. If no packets are shown the sender has not sent any weather packets the latest 10 day(s).
| Time | Temp. | Humidity | Pressure | Rain* | Wind** | Luminosity | Snow |
|---|---|---|---|---|---|---|---|
| 1777871460 | - | 83% | 1012.6 hPa | 0 mm | - | - | - |
| 1777871137 | - | 82% | 1012.6 hPa | 0 mm | - | - | - |
| 1777870814 | - | 81% | 1012.6 hPa | 0 mm | - | - | - |
| 1777870490 | - | 80% | 1012.6 hPa | 0 mm | - | - | - |
| 1777870231 | - | 83% | 1012.5 hPa | 0 mm | - | - | - |
| 1777870168 | - | 83% | 1012.5 hPa | 0 mm | - | - | - |
| 1777869845 | - | 82% | 1012.7 hPa | 0 mm | - | - | - |
| 1777869521 | - | 81% | 1012.6 hPa | 0 mm | - | - | - |
| 1777869199 | - | 82% | 1012.5 hPa | 0 mm | - | - | - |
| 1777868875 | - | 83% | 1012.2 hPa | 0 mm | - | - | - |
| 1777868553 | - | 82% | 1012.2 hPa | 0 mm | - | - | - |
| 1777868229 | - | 83% | 1012.2 hPa | 0 mm | - | - | - |
| 1777867907 | - | 81% | 1012.1 hPa | 0 mm | - | - | - |
| 1777867584 | - | 83% | 1012.2 hPa | 0 mm | - | - | - |
| 1777867262 | - | 83% | 1012 hPa | 0 mm | - | - | - |
| 1777866938 | - | 82% | 1011.6 hPa | 0 mm | - | - | - |
| 1777866615 | - | 81% | 1011.8 hPa | 0 mm | - | - | - |
| 1777866291 | - | 81% | 1011.5 hPa | 0 mm | - | - | - |
| 1777865968 | - | 82% | 1011.4 hPa | 0 mm | - | - | - |
| 1777865645 | - | 83% | 1011.5 hPa | 0 mm | - | - | - |
| 1777865322 | - | 81% | 1011.3 hPa | 0 mm | - | - | - |
| 1777864999 | - | 78% | 1011.3 hPa | 0 mm | - | - | - |
| 1777864676 | - | 81% | 1011.1 hPa | 0 mm | - | - | - |
| 1777864353 | - | 82% | 1011.2 hPa | 0 mm | - | - | - |
| 1777864031 | - | 84% | 1011.2 hPa | 0 mm | - | - | - |
* Rain latest hour (hover to see other rain measurements)
** Current wind speed in m/s (hover to see current wind gust speed)